{"data":{"norad_id":53775,"epoch":"2026-05-24T19:18:54.365760Z","epoch_age_seconds":88529,"freshness":"FRESH","line1":"1 53775U 22111C   26144.80479590 -.00001416  00000+0 -70918-4 0  9995","line2":"2 53775  53.2154 292.6604 0001510  85.2281 274.8883 15.08825408205188","mean_motion":15.08825408,"eccentricity":0.000151,"inclination_deg":53.2154,"raan_deg":292.6604,"arg_perigee_deg":85.2281,"mean_anomaly_deg":274.8883,"bstar":-7.0918e-5,"rev_number":20518,"period_min":95.438477663812,"perigee_km":538.74338455627,"apogee_km":540.83259790362,"semimajor_km":6917.9249912299,"source":"CELESTRAK","updated_at":"2026-05-25T13:38:17.541111Z"}}